Dewpoint
50 52 55 58 61 63 63 64 64 63 63 65 63 61 62 62 62 63 63 65 65 64 64 64 63 62 61 61 60 60 59 58
49 50 52 56 59 61 63 63 64 64 63 63 65 62 62 62 61 62 62 64 65 64 64 63 63 62 62 61 61 61 60 60
39 49 49 55 58 60 62 62 64 64 64 62 63 65 63 63 62 61 63 63 64 63 62 63 62 62 61 61 61 60 60 60
16 42 49 52 57 59 61 62 64 64 64 64 63 64 65 64 64 63 62 63 64 63 62 61 62 61 61 60 60 60 59 60
12 24 48 50 55 58 60 61 63 64 64 64 63 61 62 64 63 64 63 63 64 64 63 62 61 62 61 60 60 60 59 58
15 16 29 47 53 57 60 60 62 64 64 64 63 62 61 61 64 64 64 64 64 64 64 63 62 62 61 60 60 60 60 58
22 20 21 41 47 55 58 60 61 63 64 64 64 63 62 62 63 63 64 64 65 64 64 64 63 62 61 61 60 60 60 60
25 25 20 26 48 53 57 59 60 62 64 64 64 64 63 63 63 63 63 63 64 64 65 64 64 64 63 62 61 60 60 60
25 30 27 22 42 53 55 58 60 61 63 64 64 63 63 63 63 63 63 63 64 64 65 65 65 64 64 64 62 62 61 61
30 34 36 37 34 44 54 57 59 60 61 63 63 63 63 63 63 63 63 63 64 64 65 65 64 65 65 64 64 63 62 61
33 33 34 39 42 43 43 48 54 56 61 61 61 62 63 63 63 62 63 64 64 64 65 65 64 64 65 65 65 64 63 63
32 34 37 36 40 41 45 49 50 51 54 58 60 61 63 64 64 64 65 64 65 64 65 65 65 64 65 65 65 65 65 64
31 31 35 39 40 40 43 43 45 55 55 54 53 54 54 55 57 63 66 66 66 66 65 65 65 65 65 65 65 65 65 65
31 31 34 35 37 39 39 42 43 45 48 53 57 58 59 58 58 59 61 65 67 66 66 66 66 66 66 65 65 65 65 65
33 34 34 35 36 35 37 41 44 45 46 47 49 52 56 58 60 60 60 60 64 66 66 66 66 66 67 67 66 66 66 66
33 34 34 34 35 36 36 38 41 46 46 47 49 51 52 54 55 58 60 61 61 61 64 65 66 66 66 67 67 66 66 66
31 31 31 33 34 34 36 37 39 43 43 43 46 47 48 50 53 56 59 61 62 62 62 63 64 65 56 51 60 66 66 66
30 31 31 32 33 34 35 36 38 39 41 43 44 45 46 48 51 54 56 58 60 60 60 61 62 63 52 49 49 65 66 65
31 32 31 32 32 33 34 35 36 37 39 40 41 44 46 46 47 49 52 56 57 59 60 60 60 61 49 46 45 59 65 65
Lifted_Index
0 0 -0 -0 -1 -1 -1 -1 -1 0 0 0 1 1 2 2 3 3 3 2 2 2 2 1 1 1 1 1 2 2 2 2
0 -0 -0 -0 -1 -1 -1 -1 -1 -0 0 0 0 0 1 1 2 2 2 2 2 2 2 1 1 1 1 1 1 2 2 2
1 0 -0 -1 -1 -1 -1 -1 -1 -1 -1 -0 -0 -0 -0 0 1 1 2 2 2 2 2 2 1 1 1 1 1 1 1 1
3 2 -0 -1 -1 -1 -1 -1 -1 -1 -1 -1 -0 -1 -1 -1 -0 0 1 1 1 1 1 2 1 1 1 1 1 1 1 1
4 3 1 -0 -1 -1 -1 -1 -1 -1 -1 -1 -1 -1 -1 -1 -1 -1 -0 -0 -0 0 0 1 1 1 1 1 1 1 1 2
4 4 2 1 -0 -1 -2 -1 -1 -2 -2 -2 -1 -1 -1 -1 -1 -1 -1 -1 -1 -1 -1 -0 0 0 1 1 1 1 2 2
4 4 3 2 0 -1 -2 -2 -2 -2 -2 -2 -2 -1 -1 -1 -1 -1 -1 -1 -1 -1 -1 -1 -1 -1 -0 0 1 1 1 2
4 4 3 2 1 -1 -3 -4 -3 -3 -2 -2 -2 -2 -2 -1 -1 -1 -1 -1 -1 -2 -2 -2 -1 -1 -1 -1 -0 -0 0 1
4 3 3 2 1 -1 -3 -4 -4 -4 -4 -3 -3 -2 -2 -2 -2 -1 -1 -2 -2 -2 -2 -2 -2 -1 -1 -1 -1 -1 -1 -0
3 3 3 2 1 -1 -3 -4 -5 -5 -5 -4 -4 -3 -3 -2 -2 -2 -2 -2 -2 -2 -2 -2 -2 -2 -2 -2 -1 -1 -1 -1
3 3 3 2 2 -0 -2 -3 -3 -4 -5 -5 -5 -4 -3 -3 -2 -2 -2 -3 -3 -3 -3 -2 -2 -2 -2 -2 -2 -2 -2 -2
3 3 3 3 2 1 -0 -1 -2 -2 -3 -4 -5 -5 -4 -3 -2 -3 -3 -4 -4 -4 -4 -3 -3 -3 -3 -3 -3 -3 -3 -3
4 4 4 3 2 2 1 0 -0 -1 -2 -3 -4 -4 -4 -3 -3 -3 -3 -4 -4 -4 -4 -4 -4 -4 -4 -4 -4 -4 -4 -4
4 4 4 4 3 3 2 2 1 -0 -1 -1 -2 -3 -3 -3 -3 -3 -3 -3 -3 -4 -4 -5 -5 -5 -5 -5 -5 -5 -5 -5
4 4 4 4 4 3 3 3 2 2 1 1 1 0 -1 -1 -2 -2 -2 -2 -3 -3 -4 -4 -5 -5 -5 -5 -5 -5 -5 -5
4 4 4 4 4 3 4 4 4 3 3 3 3 2 2 2 1 -0 -1 -2 -3 -3 -3 -4 -4 -4 -5 -5 -5 -5 -5 -5
4 5 5 5 4 4 4 4 4 4 3 3 3 4 4 3 3 2 0 -1 -2 -3 -3 -3 -3 -3 -4 -4 -5 -5 -5 -5
4 4 5 5 5 5 5 5 5 5 4 4 4 5 5 4 4 3 2 1 -1 -2 -3 -3 -3 -3 -3 -4 -5 -5 -6 -6
4 4 5 5 6 5 5 5 5 5 5 5 5 5 5 5 5 4 4 2 1 -1 -2 -3 -3 -3 -3 -4 -5 -5 -6 -6